Hourly Data Report for November 06, 2019

All times are specified in Local Standard Time (LST). Add 1 hour to adjust for Daylight Saving Time where and when it is observed.

HOPE A
BRITISH COLUMBIA
Current Station Operator: NAVCAN

49°22'06.000" N
121°29'53.000" W
39.00 m
1113542
71187
YHE

Download Data

Hourly Data (November 2019)
Hourly Data Report for November 6, 2019
TIME Temp Definition
°C
Dew Point Definition
°C
Rel Hum Definition
%
Wind Dir Definition
10's deg

Wind Spd Definition
km/h
Visibility Definition
km
Stn Press Definition
kPa
Hmdx Definition


Wind Chill Definition


Weather Definition


00:00 5.3 3.7 89 9 17 16.1 102.12     LegendNANA
01:00 4.3 3.3 93 10 18 16.1 102.12     LegendNANA
02:00 5.1 3.3 88 10 18 16.1 102.19     LegendNANA
03:00 6.3 3.3 81 9 17 16.1 102.22     LegendNANA
04:00 4.8 3.0 88 6 11 16.1 102.24     LegendNANA
05:00 5.8 3.1 83 8 13 16.1 102.29     LegendNANA
06:00 5.1 2.5 83 8 15 16.1 102.34     LegendNANA
07:00 5.4 2.2 80 7 11 16.1 102.40     LegendNANA
08:00 5.8 2.3 78 7 11 16.1 102.46     LegendNANA
09:00 8.1 2.8 69 11 21 16.1 102.47     LegendNANA
10:00 9.9 2.7 61 10 17 16.1 102.48     LegendNANA
11:00 11.7 1.8 50 12 22 16.1 102.41     LegendNANA
12:00 13.0 1.5 45 13 21 16.1 102.31     LegendNANA
13:00 12.3 0.7 45 13 18 16.1 102.24     LegendNANA
14:00 12.3 0.2 43 13 15 16.1 102.19     LegendNANA
15:00 12.7 -0.4 40 12 15 16.1 102.17     LegendNANA
16:00 11.1 0.2 47 7 5 16.1 102.17     LegendNANA
17:00 9.2 0.5 55 5 5 16.1 102.21     LegendNANA
18:00 8.2 0.5 58 7 11 16.1 102.24     LegendNANA
19:00 8.4 0.2 56 8 13 16.1 102.25     LegendNANA
20:00 7.3 0.1 60 7 9 16.1 102.25     LegendNANA
21:00 6.6 -0.2 62 8 15 16.1 102.25     LegendNANA
22:00 6.7 -0.5 60 8 15 16.1 102.29     LegendNANA
23:00 6.4 -0.8 60 9 18 16.1 102.29     LegendNANA

Notes on Data Quality.

Legend

  • E = Estimated
  • M = Missing
  • NA = Not Available
Date modified: